User: anonymous   Login
Location: Young's Pond
(41.2695°N, 72.7766°W)
Time: 05:37:06
(UTC-05:00)
Language:

CZ-4B R/B - Orbit

View from above orbital plane
View from above orbital plane
View from above satellite
View from above satellite

Ground track
Ground track

The orbit data is extracted from the following two-line orbital elements,

1 29093U 06015B   14351.26541838  .00009899  00000-0  33183-3 0  4740
2 29093 097.5087 071.6375 0084313 337.7731 078.8701 15.27693906477490
Epoch (UTC): 17 December 2014 06:22:12
Eccentricity: 0.0084313
inclination: 97.5087°
perigee height: 425 km
apogee height: 540 km
right ascension of ascending node: 71.6375°
argument of perigee: 337.7731°
revolutions per day: 15.27693906
mean anomaly at epoch: 78.8701°
orbit number at epoch: 47749

The dashed part of the orbit path shows where the satellite is in the earth's shadow,  

DLR